User: anonymous   Login
Location: Cheyres
(46.8153°N, 6.7877°E)
Time: 22:29:48
(UTC+00:00)
Language:

Gbstr 26 Del rocket - Orbit

View from above orbital plane
View from above orbital plane
View from above satellite
View from above satellite

Ground track
Ground track

The orbit data is extracted from the following two-line orbital elements,

1 25876U 99041E   21204.41611251  .00000036  00000-0  48233-4 0  9994
2 25876  51.7623 167.2851 0531633  73.6406 292.2279 14.04588101124979
Epoch (UTC): 23 July 2021 09:59:12
Eccentricity: 0.0531633
inclination: 51.7623°
perigee height: 492 km
apogee height: 1264 km
right ascension of ascending node: 167.2851°
argument of perigee: 73.6406°
revolutions per day: 14.04588101
mean anomaly at epoch: 292.2279°
orbit number at epoch: 12497

The dashed part of the orbit path shows where the satellite is in the earth's shadow,  

DLR